• In Uzbekistan
  • List of Countries
  • For 7 days
  • Water Temperature
  • Satellite Maps
  • Weather Map
  • Weather Widgets
  • user-avatar
    Login

    Hourly Weather Hrazdan

    Today, 25 March, Saturday

    Time Temperature Precipitation Wind Pressure Humidity
    00:00 -6°C° 0 mm 1 mps 611 mmHg 93%
    01:00 -7°C° 0 mm 1 mps 610 mmHg 93%
    02:00 -7°C° 0 mm 1 mps 610 mmHg 93%
    03:00 -8°C° 0 mm 1 mps 609 mmHg 93%
    04:00 -9°C° 0 mm 1 mps 609 mmHg 93%
    05:00 -9°C° 0 mm 1 mps 608 mmHg 93%
    06:00 -10°C° 0 mm 1 mps 608 mmHg 93%
    07:00 -6°C° 0 mm 1 mps 609 mmHg 88%
    08:00 -2°C° 0 mm 1 mps 611 mmHg 84%
    09:00 +2°C° 0 mm 1 mps 612 mmHg 78%
    10:00 +3°C° 0 mm 1 mps 612 mmHg 77%
    11:00 +4°C° 0 mm 1 mps 612 mmHg 77%
    12:00 +5°C° 0 mm 1 mps 612 mmHg 77%
    13:00 +5°C° 0 mm 1 mps 611 mmHg 76%
    14:00 +5°C° 0 mm 1 mps 611 mmHg 75%
    15:00 +6°C° 0 mm 1 mps 611 mmHg 74%
    16:00 +3°C° 0 mm 1 mps 610 mmHg 79%
    17:00 +1°C° 0 mm 1 mps 609 mmHg 83%
    18:00 -2°C° 0 mm 0 mps 607 mmHg 88%
    19:00 -3°C° 0 mm 0 mps 607 mmHg 89%
    20:00 -4°C° 0 mm 0 mps 607 mmHg 89%
    21:00 -5°C° 0 mm 0 mps 607 mmHg 90%
    22:00 -4°C° 0 mm 1 mps 607 mmHg 89%
    23:00 -4°C° 0 mm 1 mps 607 mmHg 88%

    Tomorrow, 26 March, Sunday

    Time Temperature Precipitation Wind Pressure Humidity
    00:00 -4°C° 0 mm 1 mps 607 mmHg 86%
    01:00 -4°C° 0 mm 1 mps 607 mmHg 86%
    02:00 -4°C° 0 mm 1 mps 607 mmHg 85%
    03:00 -6°C° 0 mm 1 mps 607 mmHg 85%
    04:00 -6°C° 0 mm 1 mps 607 mmHg 85%
    05:00 -6°C° 0 mm 1 mps 607 mmHg 85%
    06:00 -6°C° 0 mm 1 mps 607 mmHg 85%
    07:00 -2°C° 0 mm 1 mps 608 mmHg 80%
    08:00 0°C° 0 mm 1 mps 609 mmHg 76%
    09:00 +3°C° 0 mm 1 mps 610 mmHg 72%
    10:00 +4°C° 0 mm 1 mps 610 mmHg 70%
    11:00 +5°C° 0 mm 1 mps 610 mmHg 69%
    12:00 +6°C° 0 mm 1 mps 610 mmHg 67%
    13:00 +5°C° 0 mm 2 mps 610 mmHg 65%
    14:00 +6°C° 0 mm 2 mps 610 mmHg 64%
    15:00 +6°C° 0 mm 2 mps 610 mmHg 62%
    16:00 +4°C° 0 mm 2 mps 609 mmHg 67%
    17:00 +4°C° 0 mm 1 mps 609 mmHg 73%
    18:00 +2°C° 0 mm 1 mps 609 mmHg 78%
    19:00 +1°C° 0 mm 1 mps 609 mmHg 78%
    20:00 +1°C° 0 mm 1 mps 609 mmHg 78%
    21:00 0°C° 0 mm 1 mps 609 mmHg 79%
    22:00 0°C° 0 mm 1 mps 609 mmHg 79%
    23:00 -1°C° 0 mm 1 mps 609 mmHg 79%

    Day after tomorrow, 27 March, Monday

    Time Temperature Precipitation Wind Pressure Humidity
    00:00 -1°C° 0 mm 1 mps 609 mmHg 80%
    01:00 -1°C° 0 mm 1 mps 609 mmHg 80%
    02:00 -1°C° 0 mm 1 mps 609 mmHg 80%
    03:00 -1°C° 0 mm 1 mps 609 mmHg 81%
    04:00 -3°C° 0 mm 2 mps 609 mmHg 81%
    05:00 -3°C° 0 mm 2 mps 609 mmHg 81%
    06:00 -4°C° 0 mm 2 mps 608 mmHg 81%
    07:00 -2°C° 0 mm 2 mps 609 mmHg 76%
    08:00 +2°C° 0 mm 2 mps 610 mmHg 71%
    09:00 +4°C° 0 mm 2 mps 610 mmHg 66%
    10:00 +5°C° 0 mm 2 mps 610 mmHg 64%
    11:00 +6°C° 0 mm 2 mps 610 mmHg 62%
    12:00 +7°C° 0 mm 3 mps 610 mmHg 60%
    13:00 +7°C° 0 mm 3 mps 610 mmHg 60%
    14:00 +7°C° 0 mm 3 mps 610 mmHg 60%
    15:00 +7°C° 0 mm 3 mps 609 mmHg 60%
    16:00 +6°C° 0 mm 2 mps 609 mmHg 66%
    17:00 +4°C° 0 mm 2 mps 608 mmHg 71%
    18:00 +3°C° 0 mm 2 mps 608 mmHg 77%
    19:00 +2°C° 0 mm 2 mps 608 mmHg 79%
    20:00 +2°C° 0 mm 2 mps 608 mmHg 80%
    21:00 +1°C° 0 mm 2 mps 609 mmHg 82%
    22:00 +2°C° 0.1 mm 1 mps 609 mmHg 82%
    23:00 +2°C° 0.1 mm 1 mps 608 mmHg 83%

    28 March, Tuesday

    Time Temperature Precipitation Wind Pressure Humidity
    00:00 +2°C° 0.1 mm 1 mps 608 mmHg 84%
    01:00 +2°C° 0.1 mm 1 mps 608 mmHg 85%
    02:00 +1°C° 0.1 mm 1 mps 608 mmHg 85%
    03:00 -1°C° 0.1 mm 2 mps 608 mmHg 86%
    04:00 -1°C° 0.1 mm 2 mps 608 mmHg 86%
    05:00 -1°C° 0.1 mm 2 mps 608 mmHg 86%
    06:00 -1°C° 0.1 mm 2 mps 608 mmHg 86%
    07:00 +1°C° 0.1 mm 2 mps 608 mmHg 80%
    08:00 +3°C° 0.1 mm 2 mps 609 mmHg 74%
    09:00 +3°C° 0.1 mm 3 mps 610 mmHg 68%
    10:00 +4°C° 0.2 mm 3 mps 610 mmHg 67%
    11:00 +4°C° 0.2 mm 3 mps 610 mmHg 65%
    12:00 +6°C° 0.2 mm 2 mps 610 mmHg 64%
    13:00 +6°C° 0.5 mm 2 mps 610 mmHg 67%
    14:00 +6°C° 0.5 mm 2 mps 610 mmHg 69%
    15:00 +5°C° 0.5 mm 2 mps 609 mmHg 72%
    16:00 +5°C° 0.4 mm 1 mps 609 mmHg 77%
    17:00 +4°C° 0.4 mm 1 mps 609 mmHg 81%
    18:00 +3°C° 0.4 mm 1 mps 609 mmHg 86%
    19:00 +3°C° 0.1 mm 1 mps 610 mmHg 86%
    20:00 +2°C° 0.1 mm 1 mps 610 mmHg 87%
    21:00 +2°C° 0.1 mm 1 mps 610 mmHg 87%
    22:00 +1°C° 0 mm 1 mps 610 mmHg 87%
    23:00 +1°C° 0 mm 1 mps 610 mmHg 87%

    29 March, Wednesday

    Time Temperature Precipitation Wind Pressure Humidity
    00:00 0°C° 0 mm 1 mps 610 mmHg 88%
    01:00 0°C° 0 mm 1 mps 610 mmHg 88%
    02:00 0°C° 0 mm 1 mps 610 mmHg 88%
    03:00 0°C° 0 mm 1 mps 610 mmHg 88%
    04:00 0°C° 0 mm 1 mps 610 mmHg 88%
    05:00 0°C° 0 mm 1 mps 610 mmHg 88%
    06:00 0°C° 0 mm 1 mps 610 mmHg 88%
    07:00 +1°C° 0 mm 1 mps 610 mmHg 82%
    08:00 +2°C° 0 mm 2 mps 611 mmHg 76%
    09:00 +4°C° 0 mm 2 mps 612 mmHg 70%
    10:00 +5°C° 0 mm 2 mps 612 mmHg 67%
    11:00 +6°C° 0 mm 2 mps 612 mmHg 64%
    12:00 +7°C° 0 mm 2 mps 612 mmHg 61%
    13:00 +7°C° 0 mm 2 mps 612 mmHg 62%
    14:00 +7°C° 0 mm 2 mps 612 mmHg 62%
    15:00 +7°C° 0 mm 2 mps 611 mmHg 62%
    16:00 +6°C° 0 mm 2 mps 611 mmHg 69%
    17:00 +5°C° 0 mm 1 mps 611 mmHg 76%
    18:00 +3°C° 0 mm 1 mps 610 mmHg 83%
    19:00 +2°C° 0 mm 1 mps 610 mmHg 84%
    20:00 +1°C° 0 mm 1 mps 611 mmHg 85%
    21:00 0°C° 0 mm 1 mps 611 mmHg 86%
    22:00 0°C° 0 mm 1 mps 611 mmHg 86%
    23:00 0°C° 0 mm 1 mps 611 mmHg 86%

    30 March, Thursday

    Time Temperature Precipitation Wind Pressure Humidity
    00:00 -1°C° 0 mm 0 mps 611 mmHg 86%
    01:00 -1°C° 0 mm 0 mps 612 mmHg 87%
    02:00 -2°C° 0 mm 0 mps 612 mmHg 88%
    03:00 -2°C° 0 mm 0 mps 612 mmHg 89%
    04:00 -2°C° 0 mm 0 mps 612 mmHg 90%
    05:00 -2°C° 0 mm 0 mps 612 mmHg 90%
    06:00 -2°C° 0 mm 0 mps 612 mmHg 91%
    07:00 +1°C° 0 mm 1 mps 613 mmHg 83%
    08:00 +3°C° 0 mm 1 mps 614 mmHg 74%
    09:00 +5°C° 0 mm 1 mps 614 mmHg 66%
    10:00 +6°C° 0 mm 1 mps 614 mmHg 64%
    11:00 +6°C° 0 mm 2 mps 614 mmHg 62%
    12:00 +7°C° 0 mm 2 mps 614 mmHg 59%
    13:00 +7°C° 0 mm 2 mps 613 mmHg 60%
    14:00 +7°C° 0 mm 2 mps 613 mmHg 60%
    15:00 +7°C° 0 mm 2 mps 613 mmHg 61%
    16:00 +6°C° 0 mm 2 mps 612 mmHg 68%
    17:00 +5°C° 0 mm 1 mps 611 mmHg 76%
    18:00 +4°C° 0 mm 1 mps 611 mmHg 83%
    19:00 +3°C° 0 mm 1 mps 611 mmHg 84%
    20:00 +2°C° 0 mm 1 mps 610 mmHg 85%
    21:00 +1°C° 0 mm 1 mps 610 mmHg 86%
    22:00 +1°C° 0 mm 1 mps 610 mmHg 86%
    23:00 +1°C° 0 mm 1 mps 610 mmHg 85%
    Show more